| time (UTC) | temp F | wind direction | speed knots | gust knots | rain 1hr in | rain 24hr in | rain mn in | humidity % | barometer mb |
| 20260505100026 | 43 | 222 | 4.3 | 10.4 | 0.00 | 0.01 | 0.00 | 89 | 1005.1 |
| 20260505094526 | 42 | 207 | 2.6 | 10.4 | 0.00 | 0.01 | 0.00 | 89 | 1005.0 |
| 20260505093034 | 42 | 196 | 5.2 | 12.2 | 0.00 | 0.01 | 0.00 | 89 | 1005.0 |
| 20260505091525 | 42 | 200 | 1.7 | 9.6 | 0.00 | 0.01 | 0.00 | 90 | 1005.1 |
| 20260505090020 | 42 | 223 | 0.9 | 7.8 | 0.00 | 0.01 | 0.00 | 90 | 1005.3 |
| 20260505084520 | 43 | 216 | 1.7 | 7.8 | 0.00 | 0.01 | 0.00 | 90 | 1005.4 |
| 20260505083024 | 43 | 210 | 1.7 | 6.1 | 0.00 | 0.01 | 0.00 | 90 | 1005.4 |
| 20260505081517 | 42 | 219 | 0.9 | 6.1 | 0.00 | 0.01 | 0.00 | 93 | 1005.4 |
| 20260505080015 | 39 | 194 | 0.0 | 3.5 | 0.00 | 0.01 | 0.00 | 94 | 1005.5 |
| 20260505074515 | 39 | 276 | 0.0 | 0.0 | 0.00 | 0.01 | 0.00 | 91 | 1005.6 |
| 20260505073014 | 41 | 276 | 0.0 | 0.0 | 0.00 | 0.01 | 0.00 | 88 | 1005.6 |
| 20260505071511 | 42 | 209 | 0.0 | 4.3 | 0.00 | 0.01 | 0.00 | 92 | 1005.6 |
| 20260505070011 | 41 | 199 | 0.0 | 3.5 | 0.00 | 0.01 | 0.00 | 93 | 1005.7 |
| 20260505064508 | 41 | 225 | 0.0 | 0.0 | 0.00 | 0.01 | 0.00 | 93 | 1005.9 |
| 20260505063008 | 40 | 229 | 0.0 | 2.6 | 0.00 | 0.01 | 0.00 | 94 | 1006.0 |
| 20260505061509 | 39 | 215 | 0.0 | 0.0 | 0.00 | 0.01 | 0.00 | 93 | 1006.0 |
| 20260505060004 | 38 | 217 | 0.0 | 0.0 | 0.00 | 0.01 | 0.00 | 91 | 1006.0 |
| 20260505054502 | 39 | 219 | 0.0 | 0.0 | 0.00 | 0.01 | 0.00 | 90 | 1006.1 |
| 20260505053001 | 41 | 225 | 0.0 | 0.0 | 0.00 | 0.01 | 0.00 | 90 | 1005.9 |
| 20260505051614 | 41 | 227 | 0.0 | 3.5 | 0.00 | 0.01 | 0.00 | 92 | 1006.0 |
| 20260505041555 | 40 | 213 | 0.0 | 0.0 | 0.00 | 0.01 | 0.00 | 90 | 1005.9 |
| 20260505040049 | 40 | 214 | 0.0 | 0.0 | 0.00 | 0.01 | 0.00 | 88 | 1006.1 |
| 20260505034548 | 41 | 214 | 0.0 | 0.0 | 0.00 | 0.01 | 0.01 | 87 | 1006.0 |
| 20260505033048 | 42 | 215 | 0.0 | 0.0 | 0.00 | 0.01 | 0.01 | 86 | 1006.0 |
| 20260505031554 | 43 | 217 | 0.0 | 0.0 | 0.00 | 0.01 | 0.01 | 86 | 1006.1 |
| 20260505030047 | 44 | 210 | 0.0 | 0.0 | 0.00 | 0.01 | 0.01 | 85 | 1006.2 |
| 20260505024552 | 43 | 228 | 0.0 | 0.0 | 0.00 | 0.01 | 0.01 | 87 | 1006.2 |
| 20260505023046 | 42 | 187 | 0.0 | 0.0 | 0.00 | 0.01 | 0.01 | 87 | 1006.1 |
| 20260505021549 | 42 | 182 | 0.0 | 0.0 | 0.00 | 0.01 | 0.01 | 86 | 1006.0 |
| 20260505020043 | 43 | 182 | 0.0 | 0.0 | 0.00 | 0.01 | 0.01 | 84 | 1005.9 |
| 20260505014543 | 44 | 181 | 0.0 | 0.0 | 0.00 | 0.01 | 0.01 | 84 | 1005.9 |
| 20260505013042 | 44 | 193 | 0.0 | 0.0 | 0.00 | 0.01 | 0.01 | 83 | 1005.9 |
| 20260505011539 | 44 | 195 | 0.0 | 0.0 | 0.00 | 0.01 | 0.01 | 81 | 1005.7 |
| 20260505010039 | 45 | 194 | 0.0 | 0.0 | 0.00 | 0.01 | 0.01 | 81 | 1005.5 |
| 20260505004537 | 46 | 207 | 0.0 | 0.0 | 0.00 | 0.01 | 0.01 | 79 | 1005.5 |
| 20260505003036 | 46 | 215 | 0.9 | 6.1 | 0.00 | 0.01 | 0.01 | 78 | 1005.1 |
| 20260505001535 | 47 | 200 | 1.7 | 7.8 | 0.00 | 0.01 | 0.01 | 76 | 1004.9 |
| 20260505000036 | 47 | 223 | 2.6 | 9.6 | 0.00 | 0.01 | 0.01 | 75 | 1004.5 |
| 20260504234533 | 47 | 286 | 2.6 | 8.7 | 0.00 | 0.02 | 0.01 | 74 | 1004.4 |
| 20260504233029 | 47 | 259 | 4.3 | 9.6 | 0.00 | 0.02 | 0.01 | 74 | 1004.2 |
| 20260504231528 | 47 | 360 | 7.0 | 10.4 | 0.00 | 0.02 | 0.01 | 73 | 1003.8 |
| 20260504230028 | 47 | 249 | 7.0 | 13.9 | 0.00 | 0.02 | 0.01 | 72 | 1003.7 |
| 20260504224527 | 48 | 284 | 6.1 | 13.0 | 0.00 | 0.02 | 0.01 | 71 | 1003.7 |
| 20260504223027 | 48 | 232 | 6.1 | 19.1 | 0.00 | 0.02 | 0.01 | 71 | 1003.6 |
| 20260504221526 | 48 | 266 | 9.6 | 15.6 | 0.00 | 0.02 | 0.01 | 71 | 1003.4 |
| 20260504220026 | 48 | 267 | 5.2 | 11.3 | 0.00 | 0.02 | 0.01 | 73 | 1003.2 |
| 20260504214526 | 48 | 246 | 5.2 | 13.9 | 0.00 | 0.03 | 0.01 | 73 | 1003.2 |
| 20260504213025 | 48 | 235 | 7.0 | 13.0 | 0.00 | 0.03 | 0.01 | 72 | 1003.1 |
| 20260504211524 | 47 | 237 | 5.2 | 13.9 | 0.00 | 0.03 | 0.01 | 72 | 1003.1 |
| 20260504210032 | 47 | 246 | 8.7 | 14.8 | 0.00 | 0.03 | 0.01 | 73 | 1002.8 |
| 20260504204532 | 47 | 211 | 3.5 | 12.2 | 0.00 | 0.05 | 0.01 | 75 | 1002.7 |
| 20260504203034 | 47 | 269 | 7.0 | 11.3 | 0.00 | 0.05 | 0.01 | 73 | 1002.7 |
| 20260504201523 | 47 | 360 | 0.9 | 11.3 | 0.00 | 0.05 | 0.01 | 75 | 1002.6 |
| 20260504200022 | 47 | 268 | 6.1 | 13.0 | 0.00 | 0.05 | 0.01 | 76 | 1002.6 |
| 20260504194524 | 47 | 210 | 6.1 | 13.0 | 0.00 | 0.09 | 0.01 | 74 | 1002.6 |
| 20260504193022 | 47 | 267 | 8.7 | 14.8 | 0.01 | 0.09 | 0.01 | 74 | 1002.6 |
| 20260504191524 | 48 | 249 | 9.6 | 16.5 | 0.01 | 0.09 | 0.01 | 75 | 1002.5 |
| 20260504190019 | 47 | 228 | 2.6 | 7.8 | 0.01 | 0.09 | 0.01 | 79 | 1002.6 |
| 20260504184519 | 46 | 220 | 2.6 | 9.6 | 0.01 | 0.14 | 0.01 | 78 | 1002.8 |
| 20260504183020 | 47 | 242 | 7.0 | 11.3 | 0.00 | 0.13 | 0.00 | 73 | 1002.7 |
| 20260504181518 | 47 | 263 | 6.1 | 13.0 | 0.00 | 0.13 | 0.00 | 75 | 1002.9 |
| 20260504180017 | 47 | 207 | 6.1 | 14.8 | 0.00 | 0.13 | 0.00 | 73 | 1002.8 |
| 20260504174517 | 48 | 225 | 6.1 | 15.6 | 0.00 | 0.16 | 0.00 | 70 | 1002.8 |
| 20260504173016 | 50 | 245 | 5.2 | 15.6 | 0.00 | 0.16 | 0.00 | 64 | 1002.7 |
| 20260504171514 | 51 | 215 | 8.7 | 18.2 | 0.00 | 0.16 | 0.00 | 56 | 1002.4 |